Flag for Burkina Faso Weather past 2 weeks in Koudougou, Burkina Faso

Now
72 °F

Clear.


Feels Like: 76 °F
Forecast: 65 / 101 °F
Wind: 1 mph from Northeast

Location: Ouagadougou Airport

Current Time: Mar 31, 2015 at 4:04:09 AM

Latest Report: Mar 31, 2015 at 3:00 AM


Visibility: 10 mi

Pressure: 29.86 "Hg

Humidity: 27%

Dew point: 36 °F

Location of KoudougouLocation

Historic Weather in Koudougou — Graph

°F

Koudougou temperature yesterday

Maximum temperature yesterday: 100 °F (at 3:00 PM)
Minimum temperature yesterday: 72 °F (at 5:00 AM)
Average temperature yesterday: 86 °F

Past Weeks' High & Low Weather Summary

 TemperatureHumidityPressure
High104 °F (Mar 16, 1:00 PM)66% (Mar 24, 12:00 AM)30.04 "Hg (Mar 24, 12:00 AM)
Low72 °F (Mar 29, 6:00 AM)6% (Mar 16, 1:00 PM)29.71 "Hg (Mar 21, 5:00 PM)
Average90 °F26%29.85 "Hg
* Reported Mar 16 2:00 AM — Mar 31 2:00 AM, Koudougou, Weather by CustomWeather, © 2015

Note: Actual official high and low records may vary slightly from our data, if they occured in-between our weather recording intervals... More about our weather records

Advertising

Koudougou weather history for previous 24 hours

 ConditionsComfort  
Time TempWeatherWind HumidityBarometerVisibility
2:00 AM
Tue, Mar 31
73 °FClear.2 mph25%29.86 "Hg10 mi
1:00 AM75 °FClear.2 mph27%29.86 "Hg10 mi
12:00 AM77 °FClear.2 mph22%29.89 "Hg10 mi
11:00 PM
Mon, Mar 30
79 °FClear.2 mph20%29.89 "Hg10 mi
10:00 PM82 °FClear.No wind17%29.89 "Hg10 mi
9:00 PM82 °FClear.3 mph17%29.89 "Hg10 mi
8:00 PM86 °FClear.1 mph13%29.86 "Hg10 mi
7:00 PM90 °FClear.2 mph10%29.83 "Hg10 mi
6:00 PM95 °FSunny.1 mph9%29.80 "Hg10 mi
5:00 PM97 °FPassing clouds.6 mph8%29.80 "HgN/A
4:00 PM100 °FSunny.1 mph7%29.80 "Hg10 mi
3:00 PM100 °FSunny.2 mph7%29.80 "Hg10 mi
2:00 PM99 °FSunny.5 mph8%29.83 "Hg10 mi
1:00 PM97 °FPassing clouds.5 mph8%29.86 "HgN/A
12:00 PM95 °FPassing clouds.7 mph8%29.92 "HgN/A
11:00 AM95 °FPassing clouds.7 mph8%29.95 "HgN/A
10:00 AM90 °FPassing clouds.8 mph10%29.95 "HgN/A
9:00 AM86 °FClear.9 mph11%29.95 "Hg5 mi
8:00 AM81 °FClear.6 mph14%29.92 "Hg4 mi
7:00 AM75 °FClear.5 mph16%29.89 "Hg4 mi
6:00 AM72 °FClear.3 mph17%29.89 "Hg5 mi
5:00 AM72 °FClear.3 mph16%29.86 "Hg10 mi
4:00 AM73 °FClear.5 mph15%29.86 "Hg10 mi
Weather by CustomWeather, © 2015

See weather overviewHow to use our weather pages